CW6739 Weather Reports


Display with metric or nautical units.
time (UTC)temp
F
wind
direction
speed
MPH
gust
MPH
rain 1hr
in
rain 24hr
in
rain mn
in
humidity
%
barometer
mb
20260502163159 41 318 3.0 5.0 0.00 0.00 0.00 82 1013.5
20260502162656 41 330 3.0 5.0 0.00 0.00 0.00 81 1013.8
20260502162153 41 334 0.0 4.0 0.00 0.00 0.00 82 1013.3
20260502161650 41 261 4.0 6.0 0.00 0.00 0.00 81 1013.5
20260502161146 41 4 4.0 4.0 0.00 0.00 0.00 81 1013.5
20260502160645 41 347 3.0 5.0 0.00 0.00 0.00 81 1013.5
20260502160143 41 15 0.0 5.0 0.00 0.00 0.00 81 1013.4
20260502152103 41 230 2.0 6.0 0.00 0.00 0.00 77 1012.5
20260502151600 41 350 2.0 5.0 0.00 0.00 0.00 77 1012.4
20260502151057 41 210 2.0 7.0 0.00 0.00 0.00 76 1012.2
20260502150555 41 225 3.0 7.0 0.00 0.00 0.00 76 1012.1
20260502130440 44 125 6.0 7.0 0.00 0.00 0.00 59 1009.5
20260502123422 43 210 2.0 4.0 0.00 0.00 0.00 67 1009.5
20260502122920 43 183 2.0 3.0 0.00 0.00 0.00 66 1009.6
20260502122416 43 155 3.0 5.0 0.00 0.00 0.00 66 1009.3
20260502121914 43 117 2.0 6.0 0.00 0.00 0.00 65 1009.5
20260502121411 43 192 1.0 7.0 0.00 0.00 0.00 63 1009.5
20260502120908 43 132 0.0 5.0 0.00 0.00 0.00 61 1009.3
20260502120404 43 189 4.0 5.0 0.00 0.00 0.00 62 1009.2
20260502115902 43 135 2.0 3.0 0.00 0.00 0.00 65 1009.4
20260502115359 43 195 4.0 5.0 0.00 0.00 0.00 66 1009.2
20260502114855 43 159 2.0 3.0 0.00 0.00 0.00 66 1009.4
20260502114352 43 180 0.0 2.0 0.00 0.00 0.00 65 1009.0
20260502113849 43 197 3.0 5.0 0.00 0.00 0.00 63 1009.2
20260502113346 44 180 2.0 5.0 0.00 0.00 0.00 57 1009.3
20260502112845 44 201 3.0 6.0 0.00 0.00 0.00 58 1009.0
20260502112342 44 163 4.0 14.0 0.00 0.00 0.00 57 1009.1
20260502111839 45 194 4.0 11.0 0.00 0.00 0.00 57 1008.9
20260502111336 45 170 5.0 11.0 0.00 0.00 0.00 57 1008.9
20260502110834 44 187 5.0 17.0 0.00 0.00 0.00 57 1008.8
20260502110332 44 156 7.0 9.0 0.00 0.00 0.00 59 1008.5
20260502105829 44 154 3.0 5.0 0.00 0.00 0.00 59 1008.3
20260502105326 44 179 5.0 12.0 0.00 0.00 0.00 58 1008.4
20260502104824 44 208 5.0 11.0 0.00 0.00 0.00 59 1008.2
20260502104321 44 160 5.0 10.0 0.00 0.00 0.00 59 1008.1
20260502103818 44 124 5.0 7.0 0.00 0.00 0.00 59 1008.1
20260502103315 44 161 4.0 11.0 0.00 0.00 0.00 60 1007.7
20260502102813 43 170 4.0 12.0 0.00 0.00 0.00 61 1007.9
20260502102308 43 94 3.0 12.0 0.00 0.00 0.00 61 1007.7
20260502101807 43 155 3.0 8.0 0.00 0.00 0.00 62 1007.5
20260502101304 43 152 8.0 9.0 0.00 0.00 0.00 63 1007.5
20260502100803 43 146 6.0 11.0 0.00 0.00 0.00 63 1007.5
20260502100302 43 270 1.0 9.0 0.00 0.00 0.00 63 1007.5
20260502091235 41 286 2.0 12.0 0.00 0.00 0.00 70 1006.4
20260502090732 41 105 5.0 12.0 0.00 0.00 0.00 71 1006.1
20260502090229 41 126 3.0 15.0 0.00 0.00 0.00 72 1006.1
20260502071130 41 154 6.0 12.0 0.00 0.00 0.00 75 1004.6
20260502070628 41 52 7.0 25.0 0.00 0.00 0.00 75 1004.5
20260502070126 41 110 7.0 15.0 0.00 0.00 0.00 75 1004.6
20260502065624 41 92 5.0 13.0 0.00 0.00 0.00 76 1004.5
20260502065121 41 68 3.0 18.0 0.00 0.00 0.00 75 1004.4
20260502064620 41 10 0.0 25.0 0.00 0.00 0.00 75 1004.4
20260502064116 41 55 4.0 27.0 0.00 0.00 0.00 75 1004.1
20260502063614 41 108 7.0 19.0 0.00 0.00 0.00 74 1004.2
20260502063111 41 121 5.0 16.0 0.00 0.00 0.00 75 1004.1
20260502062608 41 181 5.0 19.0 0.00 0.00 0.00 73 1004.1
20260502062106 41 114 1.0 15.0 0.00 0.00 0.00 74 1003.9
20260502061604 41 65 4.0 13.0 0.00 0.00 0.00 74 1003.7
20260502061101 42 42 3.0 29.0 0.00 0.00 0.00 73 1003.6
20260502060556 42 220 1.0 21.0 0.00 0.00 0.00 73 1003.7
20260502060053 41 102 6.0 15.0 0.00 0.00 0.00 73 1003.6
20260502055551 41 146 4.0 16.0 0.00 0.00 0.00 74 1003.3
20260502055049 41 154 4.0 24.0 0.00 0.00 0.00 75 1003.2
20260502054548 41 146 5.0 11.0 0.00 0.00 0.00 76 1002.9
20260502054044 41 164 9.0 16.0 0.00 0.00 0.00 75 1003.0
20260502053541 41 129 9.0 17.0 0.00 0.00 0.00 74 1002.9
20260502053039 41 270 5.0 13.0 0.00 0.00 0.00 76 1002.9
20260502052537 41 90 3.0 17.0 0.00 0.00 0.00 75 1002.8
20260502052035 41 96 3.0 26.0 0.00 0.00 0.00 75 1002.7
20260502051533 41 158 15.0 18.0 0.00 0.00 0.00 76 1002.7
20260502051030 41 155 10.0 13.0 0.00 0.00 0.00 76 1003.0
20260502050526 41 180 3.0 22.0 0.00 0.00 0.00 75 1002.7
20260502050024 42 141 17.0 27.0 0.00 0.00 0.00 74 1002.8
20260502045520 41 84 6.0 16.0 0.00 0.00 0.00 76 1002.8
20260502045017 41 123 3.0 18.0 0.00 0.00 0.00 75 1002.9
20260502044514 41 118 10.0 18.0 0.00 0.00 0.00 75 1002.8
20260502044010 41 41 4.0 13.0 0.00 0.00 0.00 74 1002.3
20260502043508 42 147 5.0 24.0 0.00 0.00 0.00 74 1002.2
20260502043004 41 130 8.0 15.0 0.00 0.00 0.00 74 1002.1
20260502042459 42 104 3.0 20.0 0.00 0.00 0.00 75 1002.0
20260502041957 41 88 5.0 21.0 0.00 0.00 0.00 75 1002.2
20260502041455 42 94 5.0 14.0 0.00 0.00 0.00 73 1002.0
20260502040951 42 134 6.0 16.0 0.00 0.00 0.00 73 1001.9
20260502040448 42 126 5.0 15.0 0.00 0.00 0.00 74 1001.8
20260502035944 42 158 0.0 10.0 0.00 0.00 0.00 74 1001.7
20260502035440 42 137 3.0 19.0 0.00 0.00 0.00 74 1001.6
20260502034938 42 120 4.0 17.0 0.00 0.00 0.00 74 1001.6
20260502034437 42 332 5.0 9.0 0.00 0.00 0.00 75 1001.5
20260502033935 42 150 6.0 19.0 0.00 0.00 0.00 73 1001.5
20260502033432 42 65 6.0 14.0 0.00 0.00 0.00 74 1001.5
20260502032928 42 142 5.0 16.0 0.00 0.00 0.00 74 1001.2
20260502032425 42 74 7.0 13.0 0.00 0.00 0.00 74 1001.6
20260502031922 42 83 5.0 15.0 0.00 0.00 0.00 74 1001.6
20260502031421 42 130 7.0 14.0 0.00 0.00 0.00 75 1001.8
20260502030919 42 43 4.0 11.0 0.00 0.00 0.00 75 1001.8
20260502030416 42 150 6.0 14.0 0.00 0.00 0.00 73 1002.2
20260502025914 42 48 3.0 18.0 0.00 0.00 0.00 72 1002.0
20260502025411 43 335 5.0 10.0 0.00 0.00 0.00 72 1002.1
20260502024909 43 125 4.0 14.0 0.00 0.00 0.00 72 1002.2
20260502024407 43 184 5.0 11.0 0.00 0.00 0.00 70 1002.2
20260502023904 43 144 9.0 19.0 0.00 0.00 0.00 70 1002.0
20260502023401 43 146 6.0 15.0 0.00 0.00 0.00 71 1001.7
20260502022859 43 129 6.0 13.0 0.00 0.00 0.00 70 1002.0
20260502022355 43 170 5.0 12.0 0.00 0.00 0.00 70 1001.9
20260502021852 43 129 5.0 11.0 0.00 0.00 0.00 71 1001.9
20260502021349 43 152 4.0 14.0 0.00 0.00 0.00 71 1002.1
20260502020847 43 83 4.0 13.0 0.00 0.00 0.00 71 1002.0
20260502020344 43 184 4.0 12.0 0.00 0.00 0.00 70 1001.9
20260502015841 43 180 2.0 14.0 0.00 0.00 0.00 70 1002.1
20260502015338 43 138 7.0 15.0 0.00 0.00 0.00 70 1002.4
20260502014835 43 30 2.0 12.0 0.00 0.00 0.00 69 1002.4
20260502014333 43 150 5.0 16.0 0.00 0.00 0.00 68 1002.3
20260502013828 43 125 4.0 19.0 0.00 0.00 0.00 69 1002.8
20260502013324 44 172 4.0 13.0 0.00 0.00 0.00 68 1002.2
20260502012821 44 309 2.0 13.0 0.00 0.00 0.00 67 1001.8
20260502012319 43 142 18.0 22.0 0.00 0.00 0.00 67 1001.8
20260502011816 44 90 0.0 20.0 0.00 0.00 0.00 66 1002.0
20260502011312 44 105 3.0 11.0 0.00 0.00 0.00 65 1002.4
20260502010809 44 11 6.0 15.0 0.00 0.00 0.00 65 1001.8
20260502010305 44 192 5.0 16.0 0.00 0.00 0.00 64 1001.8
20260502005802 44 105 11.0 22.0 0.00 0.00 0.00 64 1001.9
20260502005301 44 15 2.0 19.0 0.00 0.00 0.00 64 1001.9
20260502004757 44 198 7.0 13.0 0.00 0.00 0.00 62 1002.1
20260502004253 44 138 5.0 12.0 0.00 0.00 0.00 62 1002.2
20260502003751 45 77 3.0 19.0 0.00 0.00 0.00 61 1002.0
20260502003248 45 194 5.0 16.0 0.00 0.00 0.00 61 1002.1
20260502002744 45 66 5.0 22.0 0.00 0.00 0.00 61 1002.3
20260502002242 45 70 5.0 26.0 0.00 0.00 0.00 61 1002.1
20260502001738 45 114 5.0 20.0 0.00 0.00 0.00 59 1002.5
20260502001237 45 68 3.0 15.0 0.00 0.00 0.00 60 1002.2
20260502000734 45 146 4.0 19.0 0.00 0.00 0.00 59 1002.3
20260502000233 45 192 10.0 28.0 0.00 0.00 0.00 59 1002.4
20260501235732 45 359 7.0 20.0 0.00 0.00 0.00 59 1002.5
20260501235229 46 194 7.0 21.0 0.00 0.00 0.00 58 1002.2
20260501234725 46 161 7.0 23.0 0.00 0.00 0.00 57 1002.4
20260501234222 46 270 8.0 33.0 0.00 0.00 0.00 57 1003.0
20260501233720 46 160 4.0 15.0 0.00 0.00 0.00 57 1002.4
20260501233217 46 90 6.0 14.0 0.00 0.00 0.00 57 1002.7
20260501232713 46 279 13.0 17.0 0.00 0.00 0.00 57 1002.5
20260501232210 45 254 0.0 12.0 0.00 0.00 0.00 57 1002.9
20260501231708 45 87 4.0 22.0 0.00 0.00 0.00 57 1002.9
20260501231206 45 157 5.0 20.0 0.00 0.00 0.00 56 1002.8
20260501230704 46 346 4.0 20.0 0.00 0.00 0.00 55 1002.8
20260501230202 46 152 6.0 19.0 0.00 0.00 0.00 55 1003.0
20260501225659 46 29 2.0 30.0 0.00 0.00 0.00 54 1002.9
20260501225156 46 94 8.0 26.0 0.00 0.00 0.00 54 1003.0
20260501224652 46 150 12.0 24.0 0.00 0.00 0.00 54 1002.9
20260501224150 46 171 5.0 17.0 0.00 0.00 0.00 54 1002.9
20260501223646 47 352 7.0 30.0 0.00 0.00 0.00 54 1003.1
20260501223143 47 166 3.0 17.0 0.00 0.00 0.00 54 1002.9
20260501222638 46 149 6.0 19.0 0.00 0.00 0.00 56 1003.1
20260501222136 46 353 5.0 21.0 0.00 0.00 0.00 55 1003.3
20260501221632 46 143 9.0 28.0 0.00 0.00 0.00 57 1003.7
20260501221130 46 158 7.0 32.0 0.00 0.00 0.00 57 1003.6
20260501220628 45 329 5.0 33.0 0.00 0.00 0.00 57 1003.6
20260501220124 44 121 3.0 23.0 0.00 0.00 0.00 59 1003.7
20260501215621 44 167 13.0 20.0 0.00 0.00 0.00 60 1004.1
20260501215116 44 334 0.0 18.0 0.00 0.00 0.00 60 1004.3
20260501214611 44 116 6.0 16.0 0.00 0.00 0.00 59 1004.4
20260501214107 44 112 3.0 23.0 0.00 0.00 0.00 59 1004.9
20260501213604 44 165 9.0 18.0 0.00 0.00 0.00 59 1004.8
20260501213101 44 46 6.0 18.0 0.00 0.00 0.00 59 1004.6
20260501212557 44 79 8.0 34.0 0.00 0.00 0.00 59 1004.3
20260501212054 44 56 5.0 15.0 0.00 0.00 0.00 59 1004.4
20260501211550 44 131 3.0 24.0 0.00 0.00 0.00 59 1004.4
20260501211049 44 88 14.0 21.0 0.00 0.00 0.00 59 1004.7
20260501210544 44 111 9.0 29.0 0.00 0.00 0.00 60 1004.5
20260501210042 44 131 10.0 26.0 0.00 0.00 0.00 59 1004.4
20260501205538 44 156 9.0 18.0 0.00 0.00 0.00 59 1005.2
20260501205036 44 134 5.0 17.0 0.00 0.00 0.00 59 1005.1
20260501204532 44 134 3.0 28.0 0.00 0.00 0.00 59 1004.6
20260501204028 44 137 9.0 20.0 0.00 0.00 0.00 60 1005.0
20260501203525 44 120 16.0 22.0 0.00 0.00 0.00 59 1004.7
20260501203023 44 39 7.0 28.0 0.00 0.00 0.00 58 1005.0
20260501202519 44 148 3.0 21.0 0.00 0.00 0.00 58 1005.1
20260501202015 44 150 5.0 13.0 0.00 0.00 0.00 58 1005.0
20260501201513 44 138 3.0 13.0 0.00 0.00 0.00 59 1005.3
20260501201009 44 155 6.0 14.0 0.00 0.00 0.00 58 1005.5
20260501200507 44 26 8.0 20.0 0.00 0.00 0.00 58 1005.3
20260501200004 44 248 8.0 22.0 0.00 0.00 0.00 57 1005.2
20260501195501 44 111 10.0 19.0 0.00 0.00 0.00 56 1005.1
20260501194956 45 160 5.0 17.0 0.00 0.00 0.00 56 1005.6
20260501194452 45 133 5.0 19.0 0.00 0.00 0.00 56 1006.0
20260501193948 45 151 9.0 23.0 0.00 0.00 0.00 56 1005.5
20260501193446 45 159 5.0 15.0 0.00 0.00 0.00 55 1005.4
20260501192944 44 83 4.0 18.0 0.00 0.00 0.00 55 1005.2
20260501192441 45 153 3.0 18.0 0.00 0.00 0.00 55 1004.9
20260501191938 45 100 6.0 15.0 0.00 0.00 0.00 55 1005.2
20260501191435 45 331 2.0 25.0 0.00 0.00 0.00 55 1005.3
20260501190932 45 111 0.0 18.0 0.00 0.00 0.00 56 1005.7
20260501190428 45 38 9.0 23.0 0.00 0.00 0.00 55 1006.1
20260501185923 45 189 6.0 17.0 0.00 0.00 0.00 54 1005.7
20260501185420 45 155 5.0 19.0 0.00 0.00 0.00 54 1005.3
20260501184915 45 138 3.0 13.0 0.00 0.00 0.00 54 1005.4
20260501184412 45 6 4.0 15.0 0.00 0.00 0.00 53 1005.7
20260501183907 45 120 2.0 9.0 0.00 0.00 0.00 53 1005.4
20260501183404 45 180 6.0 20.0 0.00 0.00 0.00 54 1005.2
20260501182901 45 128 11.0 14.0 0.00 0.00 0.00 53 1005.6
20260501182358 45 125 8.0 16.0 0.00 0.00 0.00 53 1005.4
20260501181854 44 171 4.0 13.0 0.00 0.00 0.00 55 1005.7
20260501181351 45 117 5.0 24.0 0.00 0.00 0.00 54 1005.5
20260501180849 45 133 3.0 15.0 0.00 0.00 0.00 54 1006.2
20260501180345 44 122 9.0 16.0 0.00 0.00 0.00 54 1005.7
20260501175842 44 121 4.0 16.0 0.00 0.00 0.00 54 1006.3
20260501175338 45 0 3.0 14.0 0.00 0.00 0.00 53 1005.9
20260501174836 45 151 5.0 16.0 0.00 0.00 0.00 53 1006.2
20260501174333 44 34 4.0 13.0 0.00 0.00 0.00 53 1006.1
20260501173831 44 43 11.0 17.0 0.00 0.00 0.00 54 1006.2
20260501173328 44 146 11.0 26.0 0.00 0.00 0.00 54 1006.0
20260501172824 44 137 4.0 18.0 0.00 0.00 0.00 54 1006.4
20260501172319 43 165 4.0 17.0 0.00 0.00 0.00 54 1006.3
20260501171815 44 60 0.0 18.0 0.00 0.00 0.00 54 1006.1
20260501171312 44 99 6.0 13.0 0.00 0.00 0.00 54 1006.3
20260501170808 43 158 6.0 23.0 0.00 0.00 0.00 54 1006.2
20260501170306 43 104 3.0 19.0 0.00 0.00 0.00 54 1006.8
20260501165803 43 304 3.0 15.0 0.00 0.00 0.00 54 1007.1
20260501165301 43 149 5.0 16.0 0.00 0.00 0.00 54 1006.6
20260501164758 43 87 4.0 10.0 0.00 0.00 0.00 54 1007.2
20260501164255 43 69 0.0 15.0 0.00 0.00 0.00 54 1007.4
20260501163751 43 29 10.0 22.0 0.00 0.00 0.00 54 1007.2